Showing default

OPS 6582 (TRANSIT 5E-5), 959

Orbit data source: Space-Track

OPS 6582 (TRANSIT 5E-5), 959 is a payload satellite owned by USN BuWeps (US) in LEO that was launched on Sun, 13 Dec 1964 UTC via a THOR ABLESTAR launch vehicle from the Air Force Western Test Range (AFWTR). Payloads include a variety of satellites, spacecraft, and rockets equipped with specific instruments for various scientific and technological missions. These include communications satellites like Starlink; space stations such as the ISS; scientific satellites like the Hubble; Earth observation satellites from companies like Planet Labs, Umbra, and HawkEye 360; GPS; miniature CubeSats for education and research; and military/defense satellites.

Loading next visibility...
OPS 6582 (TRANSIT 5E-5) details
Identifier
959, 1964-083C
Orbit
LEO
Last TLE update12 hours ago
Origin
Flag of USUSN BuWeps (US)
ManufacturerAPL
MissionCivil Astronomy
Bus & MotorTRANSIT 5, Unknown motor
Mass77 kg wet, 77 kg dry
Launch date (UTC)
1964-12-13 (60 years ago)
Launch vehicle
THOR ABLESTAR
Launch site
Air Force Western Test Range (AFWTR)
Object type
Payload
Rocket body
Debris
Shape & HBROct Cyl + 4 Pan + 1 Rod, 5.9 m
Radar Cross Section1.914 m², Large (>1 m²)

Expand to show TLE details & history

TLE from 12 hours ago
0 OPS 6582 (TRANSIT 5E-5)
1   959U 64083C   24356.08095447  .00000296  00000-0  36757-3 0  9999
2   959  89.9962 186.9551 0043806 106.1976  44.3371 13.62241668976726
Epoch: 2024-12-21T01:56Z
Definitive object data (Epoch: 2024-12-21T01:56:34.466Z)
Latitude29.15776°
Longitude-112.32786°
Altitude1,008.11 km
Speed7.362 km/s
True Right ascension00h 27m 48s
True Declination29° 00' 60"
Sunlit
Object was in daylight at TLE epoch
Visualization TLE readout
Latitude5.8079°
Longitude-112.32634°
Altitude1,018.444 km
Speed7.349 km/s
Apparent Right ascension00h 50m 59s
Apparent Declination-15° 17' 47"
Sunlit
Object is in daylight
Visualization observer readout
Local Sidereal Time13:25:53
Azimuth19.661° NNE
Elevation-64.228°
Doppler factor1
Orbital elements
Apogee altitude1,057.017 km
Perigee altitude992.16 km
Semi-major axis7,402.725 km
Eccentricity0.0043806
Inclination89.9962°
RAAN186.9551°
Arg. of periapsis106.1976°
True anomaly44.6893°
Mean anomaly44.3371°
Eccentric anomaly44.51306°
Mean motion3.40766 °/min
BSTAR0.00036757
Orbital period105.64 mins
Loading maneuver chart data...

OPS 6582 (TRANSIT 5E-5) Visibility forecast

Observer location: undefined°, undefined

Span
Click to sort rows by Start time (UTC) header in descending order
Start Az.
Max El. time (UTC)
Max El. Az.
Max El.
End time (UTC)
End Az.
11 mins2024-12-22 00:42:45.959Z15.029° NNE2024-12-22 00:48:45.959Z96.275° ESE36.181°2024-12-22 00:53:45.959Z158.339° S
8 mins2024-12-22 02:29:45.959Z329.775° NNW2024-12-22 02:33:45.959Z282.366° WNW23.071°2024-12-22 02:37:45.959Z237.214° WSW
9 mins2024-12-22 12:35:45.959Z140.465° SSE2024-12-22 12:39:45.959Z83.526° E33.83°2024-12-22 12:44:45.959Z15.893° NNE
|